Location: Paris
(48.6709°N, 2.3750°E)
Time: 12:26:35
(UTC+02:00)

CAS-4B - Pass Details

Date: 08 July 2022
Orbit: 522 x 536 km, 43.0° (Epoch: 17 August)

Event Time Altitude Azimuth Distance (km) Brightness Sun altitude
Exits shadow 03:19:57 35° 197° (SSW) 850 ? -16.4°
Maximum altitude 03:20:26 37° 179° (S) 825 ? -16.4°
Drops below altitude 10° 03:24:09 10° 112° (ESE) 1,759 ? -16.1°
Sets 03:26:29 0° 104° (ESE) 2,650 ? -16.0°
